Weather History for Lawrenceville, IL

Change the Weather History Date:

Wednesday, August 13, 2014

  Actual Average Record
Temperature  
Mean Temperature 69 °F 77 °F  
Max Temperature 81 °F 88 °F 98 °F (2005)
Min Temperature 57 °F 66 °F 51 °F (2004)
Degree Days  
Heating Degree Days 0 0  
Month to date heating degree days 0 0  
Since 1 June heating degree days 0 7  
Since 1 July heating degree days 0 0  
Cooling Degree Days 4 12  
Month to date cooling degree days 107 156  
Year to date cooling degree days 845 983  
Since 1 June cooling degree days 654 844  
Growing Degree Days 19 (Base 50)    
Moisture  
Dew Point 58 °F    
Average Humidity 73    
Maximum Humidity 100    
Minimum Humidity 45    
Precipitation  
Precipitation 0.00 in 0.09 in 1.50 in (1993)
Month to date precipitation 1.98 1.38  
Year to date precipitation 26.02 27.34  
Sea Level Pressure  
Sea Level Pressure 30.05 in    
Wind  
Wind Speed 5 mph (WNW)    
Max Wind Speed 13 mph    
Max Gust Speed 17 mph    
Visibility 10 miles    
Events      
T = Trace of Precipitation, MM = Missing Value Source: NWS Daily Summary

Daily Weather History Graph

Daily Weather History Graph

Search for Another Location

Airport:

Trip Planner

Search our weather history database for the weather conditions in past years. The results will help you decide how hot, cold, wet, or windy it might be!

Date:

Astronomy

Aug. 13, 2014 Rise Set
Actual Time 6:02 AM CDT 7:47 PM CDT
Civil Twilight 5:33 AM CDT 8:15 PM CDT
Nautical Twilight 4:59 AM CDT 8:50 PM CDT
Astronomical Twilight 4:22 AM CDT 9:27 PM CDT
Moon 9:35 PM CDT (8/13) 9:27 AM CDT (8/13)
Length of Visible Light 14h 42m
Length of Day
13h 45m
Waning Gibbous, 87% of the Moon is Illuminated
Aug 13
Waning Gibbous
Aug 17
Last Quarter
Aug 25
New
Sep 2
First Quarter
Sep 8
Full

Hourly Weather History & Observations

Time (CDT) Temp. Heat Index Dew Point Humidity Pressure Visibility Wind Dir Wind Speed Gust Speed Precip Events Conditions
12:53 AM 62.1 °F - 59.0 °F 90% 30.01 in 10.0 mi Calm Calm - N/A   Partly Cloudy
1:53 AM 60.1 °F - 57.0 °F 90% 30.01 in 10.0 mi Calm Calm - N/A   Clear
2:53 AM 59.0 °F - 57.0 °F 93% 30.01 in 10.0 mi Calm Calm - N/A   Clear
3:53 AM 57.0 °F - 55.9 °F 96% 30.02 in 10.0 mi Calm Calm - N/A   Clear
4:53 AM 57.9 °F - 55.9 °F 93% 30.03 in 10.0 mi Calm Calm - N/A   Clear
5:53 AM 57.9 °F - 55.9 °F 93% 30.04 in 9.0 mi WNW 5.8 mph - N/A   Clear
8:53 AM 68.0 °F - 60.1 °F 76% 30.08 in 10.0 mi NW 4.6 mph - N/A   Clear
10:53 AM 75.9 °F - 57.9 °F 54% 30.09 in 10.0 mi NW 8.1 mph - N/A   Clear
11:53 AM 78.1 °F - 57.0 °F 48% 30.09 in 10.0 mi NW 12.7 mph 16.1 mph N/A   Partly Cloudy
12:53 PM 77.0 °F - 57.0 °F 50% 30.08 in 10.0 mi North 8.1 mph - N/A   Scattered Clouds
1:53 PM 79.0 °F - 57.0 °F 47% 30.07 in 10.0 mi NW 9.2 mph - N/A   Scattered Clouds
3:53 PM 81.0 °F 81.0 °F 57.0 °F 44% 30.05 in 10.0 mi NW 9.2 mph - N/A   Clear
4:53 PM 80.1 °F 80.6 °F 57.9 °F 47% 30.05 in 10.0 mi WNW 6.9 mph - N/A   Clear
5:53 PM 79.0 °F - 57.0 °F 47% 30.04 in 10.0 mi WNW 8.1 mph - N/A   Clear
6:53 PM 77.0 °F - 57.9 °F 52% 30.04 in 10.0 mi WNW 5.8 mph - N/A   Clear
7:53 PM 72.0 °F - 59.0 °F 64% 30.04 in 10.0 mi WSW 3.5 mph - N/A   Clear
8:53 PM 68.0 °F - 63.0 °F 84% 30.05 in 10.0 mi Calm Calm - N/A   Clear
9:53 PM 66.0 °F - 61.0 °F 84% 30.06 in 10.0 mi Calm Calm - N/A   Clear
11:53 PM 64.0 °F - 61.0 °F 90% 30.06 in 10.0 mi WNW 3.5 mph - N/A   Clear